^^
Station Historical Data
Daily Summary for April 16, 2021 Units:  English    Metric   Both
Daily Weekly Monthly Yearly
  High: Low: Average:
Temperature: 45.9 °F 38.8 °F 41.7 °F
Dew Point: 39.1 °F 34.3 °F 36.1 °F
Humidity: 86% 73% 81%
Wind Speed: 8mph 0mph 4.2mph
Wind Gust: 14mph - -
Wind- - SW
Pressure: 29.92 in 29.85 in -
Precipitation: 0.00 in    
 
 
Tabular Data for April 16, 2021
Time Temperature Dew Point Pressure Wind Wind Speed Wind Gust Humidity Rainfall Rate (Hourly) solar
00:00 39.4 °F 35.3 °F 29.87 in NW 5 mph 6 mph 85% 0.00 in 0 W/m2
00:05 39.5 °F 35.4 °F 29.87 in NNW 6 mph 6 mph 85% 0.00 in 0 W/m2
00:10 39.5 °F 35.4 °F 29.87 in NW 6 mph 9 mph 85% 0.00 in 0 W/m2
00:15 39.5 °F 35.4 °F 29.87 in NNW 6 mph 9 mph 85% 0.00 in 0 W/m2
00:20 39.5 °F 35.4 °F 29.87 in WSW 6 mph 6 mph 85% 0.00 in 0 W/m2
00:25 39.5 °F 35.4 °F 29.87 in NW 5 mph 6 mph 85% 0.00 in 0 W/m2
00:30 39.5 °F 35.4 °F 29.87 in NW 5 mph 5 mph 85% 0.00 in 0 W/m2
00:35 39.5 °F 35.4 °F 29.87 in NW 6 mph 6 mph 85% 0.00 in 0 W/m2
00:50 39.5 °F 35.4 °F 29.87 in NNW 7 mph 12 mph 85% 0.00 in 0 W/m2
00:55 39.4 °F 35.3 °F 29.87 in NW 7 mph 12 mph 85% 0.00 in 0 W/m2
01:00 39.5 °F 35.4 °F 29.87 in NW 5 mph 5 mph 85% 0.00 in 0 W/m2
01:05 39.5 °F 35.4 °F 29.87 in NNW 5 mph 5 mph 85% 0.00 in 0 W/m2
01:10 39.4 °F 35.3 °F 29.87 in North 5 mph 7 mph 85% 0.00 in 0 W/m2
01:15 39.4 °F 35.3 °F 29.87 in WNW 5 mph 7 mph 85% 0.00 in 0 W/m2
01:20 39.4 °F 35.3 °F 29.87 in NW 5 mph 8 mph 85% 0.00 in 0 W/m2
01:25 39.4 °F 35 °F 29.87 in NW 5 mph 8 mph 84% 0.00 in 0 W/m2
01:30 39.4 °F 35.3 °F 29.87 in NNW 5 mph 5 mph 85% 0.00 in 0 W/m2
01:40 39.4 °F 35 °F 29.87 in NNW 6 mph 8 mph 84% 0.00 in 0 W/m2
01:45 39.4 °F 35 °F 29.87 in NW 6 mph 8 mph 84% 0.00 in 0 W/m2
01:50 39.4 °F 35 °F 29.87 in NNW 5 mph 8 mph 84% 0.00 in 0 W/m2
01:55 39.5 °F 35.1 °F 29.87 in NW 5 mph 9 mph 84% 0.00 in 0 W/m2
02:00 39.4 °F 35 °F 29.87 in NW 5 mph 6 mph 84% 0.00 in 0 W/m2
02:05 39.5 °F 35.1 °F 29.88 in NNW 5 mph 6 mph 84% 0.00 in 0 W/m2
02:10 39.4 °F 34.7 °F 29.88 in NW 6 mph 6 mph 83% 0.00 in 0 W/m2
02:15 39.5 °F 35.1 °F 29.88 in WNW 6 mph 6 mph 84% 0.00 in 0 W/m2
02:20 39.5 °F 35.1 °F 29.88 in WNW 4 mph 4 mph 84% 0.00 in 0 W/m2
02:25 39.5 °F 35.1 °F 29.88 in NNW 4 mph 5 mph 84% 0.00 in 0 W/m2
02:30 39.5 °F 35.1 °F 29.88 in NW 5 mph 9 mph 84% 0.00 in 0 W/m2
02:35 39.5 °F 35.1 °F 29.88 in NNW 4 mph 9 mph 84% 0.00 in 0 W/m2
02:40 39.5 °F 35.1 °F 29.87 in WNW 5 mph 5 mph 84% 0.00 in 0 W/m2
02:45 39.5 °F 35.1 °F 29.87 in NNW 4 mph 5 mph 84% 0.00 in 0 W/m2
02:50 39.5 °F 35.1 °F 29.88 in NW 5 mph 5 mph 84% 0.00 in 0 W/m2
02:55 39.4 °F 35.3 °F 29.88 in NNW 5 mph 8 mph 85% 0.00 in 0 W/m2
03:00 39.4 °F 35.3 °F 29.88 in NW 6 mph 6 mph 85% 0.00 in 0 W/m2
03:05 39.3 °F 34.9 °F 29.88 in NNW 6 mph 8 mph 84% 0.00 in 0 W/m2
03:10 39.3 °F 34.9 °F 29.88 in WNW 7 mph 7 mph 84% 0.00 in 0 W/m2
03:15 39.3 °F 34.9 °F 29.88 in NW 7 mph 8 mph 84% 0.00 in 0 W/m2
03:20 39.3 °F 34.9 °F 29.88 in North 6 mph 6 mph 84% 0.00 in 0 W/m2
03:25 39.3 °F 35.2 °F 29.88 in NW 6 mph 8 mph 85% 0.00 in 0 W/m2
03:30 39.3 °F 34.9 °F 29.87 in North 7 mph 9 mph 84% 0.00 in 0 W/m2
03:35 39.3 °F 35.2 °F 29.87 in NNW 7 mph 9 mph 85% 0.00 in 0 W/m2
03:40 39.4 °F 35 °F 29.87 in NNW 6 mph 6 mph 84% 0.00 in 0 W/m2
03:45 39.3 °F 34.9 °F 29.87 in NNW 7 mph 8 mph 84% 0.00 in 0 W/m2
03:50 39.4 °F 35 °F 29.87 in NNW 7 mph 14 mph 84% 0.00 in 0 W/m2
03:55 39.4 °F 35 °F 29.87 in NNW 7 mph 14 mph 84% 0.00 in 0 W/m2
04:00 39.4 °F 35 °F 29.87 in NNW 8 mph 8 mph 84% 0.00 in 0 W/m2
04:05 39.4 °F 35 °F 29.87 in NW 7 mph 8 mph 84% 0.00 in 0 W/m2
04:10 39.4 °F 35.3 °F 29.88 in NNW 7 mph 12 mph 85% 0.00 in 0 W/m2
04:15 39.4 °F 35.3 °F 29.88 in WNW 7 mph 12 mph 85% 0.00 in 0 W/m2
04:20 39.4 °F 35.3 °F 29.88 in NNW 7 mph 14 mph 85% 0.00 in 0 W/m2
04:25 39.4 °F 35.3 °F 29.88 in NW 7 mph 14 mph 85% 0.00 in 0 W/m2
04:30 39.3 °F 35.5 °F 29.88 in NNW 7 mph 9 mph 86% 0.00 in 0 W/m2
04:35 39.3 °F 35.5 °F 29.88 in NW 8 mph 13 mph 86% 0.00 in 0 W/m2
04:40 39.2 °F 35.4 °F 29.88 in WNW 7 mph 7 mph 86% 0.00 in 0 W/m2
04:45 39.3 °F 35.5 °F 29.88 in NW 7 mph 8 mph 86% 0.00 in 0 W/m2
04:50 39.3 °F 35.5 °F 29.88 in NNW 7 mph 7 mph 86% 0.00 in 0 W/m2
04:55 39.2 °F 35.4 °F 29.87 in NNW 7 mph 7 mph 86% 0.00 in 0 W/m2
05:00 39.3 °F 35.5 °F 29.87 in WNW 7 mph 9 mph 86% 0.00 in 0 W/m2
05:05 39.3 °F 35.5 °F 29.87 in NNW 7 mph 9 mph 86% 0.00 in 0 W/m2
05:10 39.3 °F 35.5 °F 29.87 in WNW 7 mph 11 mph 86% 0.00 in 0 W/m2
05:15 39.3 °F 35.5 °F 29.87 in NW 7 mph 11 mph 86% 0.00 in 0 W/m2
05:20 39.3 °F 35.5 °F 29.87 in North 6 mph 6 mph 86% 0.00 in 0 W/m2
05:25 39.3 °F 35.5 °F 29.87 in NW 7 mph 8 mph 86% 0.00 in 0 W/m2
05:30 39.3 °F 35.2 °F 29.86 in North 7 mph 8 mph 85% 0.00 in 0 W/m2
05:35 39.2 °F 35.4 °F 29.86 in WNW 7 mph 10 mph 86% 0.00 in 0 W/m2
05:40 39.3 °F 35.5 °F 29.86 in NW 7 mph 9 mph 86% 0.00 in 0 W/m2
05:45 39.3 °F 35.5 °F 29.86 in WNW 7 mph 9 mph 86% 0.00 in 0 W/m2
05:50 39.3 °F 35.5 °F 29.86 in North 7 mph 7 mph 86% 0.00 in 0 W/m2
05:55 39.2 °F 35.4 °F 29.86 in WNW 8 mph 11 mph 86% 0.00 in 0 W/m2
06:00 39.2 °F 35.4 °F 29.87 in NW 8 mph 8 mph 86% 0.00 in 0 W/m2
06:05 39.3 °F 35.5 °F 29.87 in West 7 mph 8 mph 86% 0.00 in 0 W/m2
06:10 39.2 °F 35.4 °F 29.87 in West 8 mph 8 mph 86% 0.00 in 0 W/m2
06:15 39.2 °F 35.4 °F 29.87 in NNW 7 mph 8 mph 86% 0.00 in 0 W/m2
06:20 39.2 °F 35.1 °F 29.86 in North 7 mph 8 mph 85% 0.00 in 0 W/m2
06:25 39.2 °F 35.1 °F 29.86 in NNW 8 mph 9 mph 85% 0.00 in 0 W/m2
06:30 39.2 °F 35.1 °F 29.86 in West 7 mph 7 mph 85% 0.00 in 0 W/m2
06:35 39.3 °F 35.2 °F 29.86 in WNW 5 mph 7 mph 85% 0.00 in 0 W/m2
06:40 39.2 °F 35.1 °F 29.86 in WNW 5 mph 5 mph 85% 0.00 in 0 W/m2
06:45 39.3 °F 35.2 °F 29.86 in NNW 5 mph 10 mph 85% 0.00 in 0 W/m2
06:50 39.2 °F 35.4 °F 29.86 in NW 5 mph 5 mph 86% 0.00 in 0 W/m2
06:55 39.2 °F 35.1 °F 29.86 in West 5 mph 6 mph 85% 0.00 in 0 W/m2
07:00 39.1 °F 35 °F 29.86 in NW 4 mph 5 mph 85% 0.00 in 0 W/m2
07:05 39.1 °F 35 °F 29.86 in NW 5 mph 5 mph 85% 0.00 in 5 W/m2
07:10 39.1 °F 35 °F 29.86 in West 5 mph 7 mph 85% 0.00 in 5 W/m2
07:15 39 °F 34.9 °F 29.86 in WNW 5 mph 7 mph 85% 0.00 in 5 W/m2
07:20 39.1 °F 35 °F 29.86 in NW 6 mph 6 mph 85% 0.00 in 7 W/m2
07:25 39 °F 34.9 °F 29.86 in North 5 mph 6 mph 85% 0.00 in 9 W/m2
07:30 39 °F 34.9 °F 29.86 in WNW 6 mph 10 mph 85% 0.00 in 9 W/m2
07:35 39 °F 34.9 °F 29.86 in West 6 mph 10 mph 85% 0.00 in 12 W/m2
07:40 39 °F 34.9 °F 29.86 in WNW 6 mph 6 mph 85% 0.00 in 11 W/m2
07:45 39 °F 34.6 °F 29.86 in NW 6 mph 6 mph 84% 0.00 in 14 W/m2
07:50 39 °F 34.6 °F 29.86 in NW 6 mph 6 mph 84% 0.00 in 11 W/m2
07:55 39 °F 34.6 °F 29.86 in NW 7 mph 7 mph 84% 0.00 in 19 W/m2
08:00 38.9 °F 34.5 °F 29.86 in North 8 mph 8 mph 84% 0.00 in 19 W/m2
08:05 38.9 °F 34.5 °F 29.86 in NW 6 mph 11 mph 84% 0.00 in 35 W/m2
08:10 38.9 °F 34.5 °F 29.86 in NW 6 mph 11 mph 84% 0.00 in 23 W/m2
08:15 38.8 °F 34.4 °F 29.86 in NW 7 mph 11 mph 84% 0.00 in 26 W/m2
08:20 38.9 °F 34.5 °F 29.86 in NW 6 mph 6 mph 84% 0.00 in 23 W/m2
08:25 38.8 °F 34.4 °F 29.86 in NW 6 mph 6 mph 84% 0.00 in 32 W/m2
08:30 38.9 °F 34.5 °F 29.86 in NW 7 mph 7 mph 84% 0.00 in 32 W/m2
08:35 38.9 °F 34.5 °F 29.86 in NW 6 mph 7 mph 84% 0.00 in 33 W/m2
08:40 38.9 °F 34.5 °F 29.86 in WNW 6 mph 6 mph 84% 0.00 in 39 W/m2
08:50 39.1 °F 34.7 °F 29.86 in NW 6 mph 8 mph 84% 0.00 in 56 W/m2
08:55 39.1 °F 34.4 °F 29.86 in WNW 6 mph 8 mph 83% 0.00 in 62 W/m2
09:15 39.3 °F 34.6 °F 29.86 in NW 5 mph 13 mph 83% 0.00 in 90 W/m2
09:20 39.3 °F 34.3 °F 29.86 in NW 6 mph 6 mph 82% 0.00 in 113 W/m2
09:25 39.5 °F 34.8 °F 29.86 in WNW 5 mph 10 mph 83% 0.00 in 88 W/m2
09:30 39.6 °F 34.6 °F 29.86 in NW 4 mph 4 mph 82% 0.00 in 81 W/m2
09:35 39.7 °F 34.7 °F 29.86 in NNW 4 mph 5 mph 82% 0.00 in 98 W/m2
09:40 39.7 °F 34.7 °F 29.86 in NW 4 mph 4 mph 82% 0.00 in 111 W/m2
09:45 39.8 °F 34.8 °F 29.86 in North 5 mph 5 mph 82% 0.00 in 116 W/m2
09:50 40 °F 34.6 °F 29.86 in West 4 mph 9 mph 81% 0.00 in 120 W/m2
09:55 40 °F 34.6 °F 29.86 in North 5 mph 9 mph 81% 0.00 in 114 W/m2
10:00 40.2 °F 34.8 °F 29.86 in NW 4 mph 4 mph 81% 0.00 in 111 W/m2
10:10 40.2 °F 34.5 °F 29.86 in WNW 4 mph 4 mph 80% 0.00 in 105 W/m2
10:15 40.2 °F 34.5 °F 29.86 in NW 4 mph 4 mph 80% 0.00 in 116 W/m2
10:20 40.3 °F 34.6 °F 29.87 in NW 4 mph 4 mph 80% 0.00 in 114 W/m2
10:25 40.3 °F 34.6 °F 29.86 in North 4 mph 5 mph 80% 0.00 in 125 W/m2
10:30 40.4 °F 34.7 °F 29.87 in NW 4 mph 4 mph 80% 0.00 in 130 W/m2
10:45 40.4 °F 34.4 °F 29.86 in NW 5 mph 5 mph 79% 0.00 in 155 W/m2
11:05 41 °F 35 °F 29.86 in NE 4 mph 4 mph 79% 0.00 in 183 W/m2
11:20 41.6 °F 35.2 °F 29.86 in NNW 3 mph 3 mph 78% 0.00 in 213 W/m2
11:30 41.9 °F 35.5 °F 29.87 in NW 3 mph 6 mph 78% 0.00 in 178 W/m2
11:35 41.9 °F 35.2 °F 29.87 in NW 4 mph 6 mph 77% 0.00 in 134 W/m2
11:40 41.8 °F 35.1 °F 29.87 in NNW 5 mph 5 mph 77% 0.00 in 132 W/m2
11:50 41.9 °F 35.5 °F 29.86 in NNW 3 mph 5 mph 78% 0.00 in 132 W/m2
12:05 42.1 °F 35.4 °F 29.86 in NW 3 mph 3 mph 77% 0.00 in 153 W/m2
12:10 42.2 °F 35.8 °F 29.86 in NNW 3 mph 3 mph 78% 0.00 in 155 W/m2
12:15 42.3 °F 35.6 °F 29.87 in NW 3 mph 3 mph 77% 0.00 in 142 W/m2
12:20 42.4 °F 35.7 °F 29.87 in North 3 mph 3 mph 77% 0.00 in 130 W/m2
12:25 42.5 °F 36.1 °F 29.87 in NW 3 mph 3 mph 78% 0.00 in 120 W/m2
12:30 42.5 °F 36.1 °F 29.87 in NNW 3 mph 5 mph 78% 0.00 in 139 W/m2
12:35 42.6 °F 36.5 °F 29.86 in NNW 3 mph 5 mph 79% 0.00 in 148 W/m2
12:40 42.6 °F 36.2 °F 29.87 in NNW 3 mph 3 mph 78% 0.00 in 165 W/m2
12:45 42.7 °F 36.3 °F 29.86 in WNW 3 mph 3 mph 78% 0.00 in 200 W/m2
12:55 42.9 °F 35.9 °F 29.86 in NNW 3 mph 6 mph 76% 0.00 in 206 W/m2
13:15 43.4 °F 36.3 °F 29.86 in North 3 mph 4 mph 76% 0.00 in 272 W/m2
13:20 43.5 °F 36.4 °F 29.86 in NNW 3 mph 3 mph 76% 0.00 in 294 W/m2
13:25 43.7 °F 36.6 °F 29.86 in NNW 3 mph 3 mph 76% 0.00 in 332 W/m2
13:30 43.9 °F 36.5 °F 29.86 in North 3 mph 3 mph 75% 0.00 in 360 W/m2
13:35 44.2 °F 37.1 °F 29.86 in NNW 2 mph 3 mph 76% 0.00 in 371 W/m2
13:40 44.6 °F 37.2 °F 29.85 in NNW 2 mph 2 mph 75% 0.00 in 457 W/m2
13:45 44.9 °F 37.1 °F 29.85 in North 3 mph 3 mph 74% 0.00 in 461 W/m2
13:50 45.4 °F 38.3 °F 29.85 in North 2 mph 3 mph 76% 0.00 in 482 W/m2
13:55 45.6 °F 37.4 °F 29.85 in NNW 2 mph 3 mph 73% 0.00 in 394 W/m2
14:00 45.4 °F 37.2 °F 29.86 in NE 2 mph 2 mph 73% 0.00 in 320 W/m2
14:05 45.2 °F 37.4 °F 29.86 in East 2 mph 3 mph 74% 0.00 in 336 W/m2
14:10 44.8 °F 37 °F 29.85 in NNE 2 mph 3 mph 74% 0.00 in 418 W/m2
14:15 44.8 °F 37 °F 29.85 in NNW 2 mph 3 mph 74% 0.00 in 381 W/m2
14:20 45.2 °F 37.4 °F 29.85 in North 2 mph 2 mph 74% 0.00 in 373 W/m2
14:25 45.2 °F 37.7 °F 29.86 in NNE 2 mph 2 mph 75% 0.00 in 408 W/m2
14:30 45.4 °F 37.6 °F 29.86 in NNE 2 mph 2 mph 74% 0.00 in 422 W/m2
14:35 45 °F 37.2 °F 29.85 in NE 2 mph 2 mph 74% 0.00 in 559 W/m2
14:40 45.5 °F 37.3 °F 29.85 in ENE 2 mph 3 mph 73% 0.00 in 633 W/m2
14:45 45.9 °F 38.1 °F 29.85 in ENE 2 mph 3 mph 74% 0.00 in 471 W/m2
15:00 45.9 °F 38.1 °F 29.85 in East 3 mph 3 mph 74% 0.00 in 418 W/m2
15:05 45.8 °F 38.3 °F 29.85 in ENE 3 mph 4 mph 75% 0.00 in 352 W/m2
15:20 45.4 °F 37.9 °F 29.85 in ENE 3 mph 3 mph 75% 0.00 in 309 W/m2
15:25 45.5 °F 38.4 °F 29.85 in ENE 3 mph 3 mph 76% 0.00 in 311 W/m2
15:30 45.5 °F 38 °F 29.85 in NE 3 mph 3 mph 75% 0.00 in 287 W/m2
15:35 45.2 °F 37.7 °F 29.85 in North 3 mph 5 mph 75% 0.00 in 271 W/m2
15:40 45.3 °F 38.2 °F 29.85 in ENE 3 mph 4 mph 76% 0.00 in 367 W/m2
15:45 45.2 °F 38.1 °F 29.85 in ENE 4 mph 4 mph 76% 0.00 in 255 W/m2
15:50 44.7 °F 37.9 °F 29.85 in ENE 4 mph 5 mph 77% 0.00 in 315 W/m2
15:55 44.8 °F 38.4 °F 29.85 in East 3 mph 5 mph 78% 0.00 in 345 W/m2
16:00 45.1 °F 39 °F 29.85 in NE 4 mph 4 mph 79% 0.00 in 341 W/m2
16:05 45 °F 38.6 °F 29.85 in NNE 3 mph 4 mph 78% 0.00 in 241 W/m2
16:10 44.6 °F 38.2 °F 29.85 in ENE 3 mph 6 mph 78% 0.00 in 213 W/m2
16:15 44.2 °F 37.8 °F 29.85 in NE 4 mph 6 mph 78% 0.00 in 209 W/m2
16:20 44.2 °F 37.8 °F 29.85 in ENE 4 mph 4 mph 78% 0.00 in 186 W/m2
16:25 44.1 °F 38 °F 29.85 in ENE 4 mph 4 mph 79% 0.00 in 183 W/m2
16:30 44 °F 37.6 °F 29.85 in ENE 4 mph 4 mph 78% 0.00 in 200 W/m2
16:35 44 °F 37.6 °F 29.85 in ENE 4 mph 4 mph 78% 0.00 in 241 W/m2
16:40 44.5 °F 38.1 °F 29.85 in ENE 4 mph 4 mph 78% 0.00 in 367 W/m2
16:45 45.6 °F 39.1 °F 29.85 in NE 4 mph 7 mph 78% 0.00 in 403 W/m2
16:50 45.7 °F 38.9 °F 29.85 in ENE 4 mph 5 mph 77% 0.00 in 339 W/m2
16:55 45.5 °F 38.4 °F 29.85 in ENE 4 mph 7 mph 76% 0.00 in 306 W/m2
17:05 44.9 °F 38.1 °F 29.86 in ENE 4 mph 5 mph 77% 0.00 in 176 W/m2
17:10 44.7 °F 38.3 °F 29.86 in ENE 3 mph 3 mph 78% 0.00 in 169 W/m2
17:15 44.5 °F 37.7 °F 29.86 in ENE 3 mph 5 mph 77% 0.00 in 132 W/m2
17:25 44.2 °F 37.4 °F 29.86 in East 3 mph 6 mph 77% 0.00 in 120 W/m2
17:35 44 °F 36.9 °F 29.86 in ENE 4 mph 4 mph 76% 0.00 in 104 W/m2
17:40 44 °F 37.3 °F 29.86 in ENE 4 mph 4 mph 77% 0.00 in 98 W/m2
17:45 43.9 °F 36.8 °F 29.86 in NE 3 mph 4 mph 76% 0.00 in 84 W/m2
17:50 43.8 °F 36.7 °F 29.87 in ENE 3 mph 3 mph 76% 0.00 in 91 W/m2
17:55 43.7 °F 36.6 °F 29.87 in NNE 3 mph 3 mph 76% 0.00 in 90 W/m2
18:00 43.6 °F 36.5 °F 29.87 in NE 3 mph 3 mph 76% 0.00 in 88 W/m2
18:05 43.6 °F 36.5 °F 29.87 in ENE 3 mph 3 mph 76% 0.00 in 95 W/m2
18:10 43.6 °F 36.5 °F 29.87 in East 4 mph 5 mph 76% 0.00 in 86 W/m2
18:15 43.4 °F 36.3 °F 29.87 in ENE 3 mph 6 mph 76% 0.00 in 72 W/m2
18:20 43.4 °F 36.3 °F 29.87 in East 3 mph 4 mph 76% 0.00 in 69 W/m2
18:25 43.5 °F 36.4 °F 29.87 in ENE 3 mph 4 mph 76% 0.00 in 65 W/m2
18:30 43.4 °F 36.3 °F 29.87 in ENE 3 mph 3 mph 76% 0.00 in 69 W/m2
18:35 43.4 °F 36.7 °F 29.87 in ENE 3 mph 3 mph 77% 0.00 in 69 W/m2
18:40 43.4 °F 36.7 °F 29.87 in East 4 mph 4 mph 77% 0.00 in 65 W/m2
18:45 43.3 °F 36.6 °F 29.87 in ENE 4 mph 5 mph 77% 0.00 in 63 W/m2
18:50 43.4 °F 36.7 °F 29.87 in East 5 mph 5 mph 77% 0.00 in 56 W/m2
18:55 43.3 °F 36.6 °F 29.88 in East 4 mph 5 mph 77% 0.00 in 51 W/m2
19:00 43.4 °F 36.7 °F 29.88 in ENE 3 mph 3 mph 77% 0.00 in 42 W/m2
19:05 43.4 °F 36.7 °F 29.88 in East 3 mph 3 mph 77% 0.00 in 33 W/m2
19:10 43.4 °F 36.7 °F 29.88 in NE 3 mph 4 mph 77% 0.00 in 30 W/m2
19:15 43.4 °F 36.7 °F 29.88 in NE 3 mph 4 mph 77% 0.00 in 26 W/m2
19:20 43.4 °F 36.7 °F 29.89 in East 3 mph 3 mph 77% 0.00 in 26 W/m2
19:25 43.4 °F 36.7 °F 29.89 in East 3 mph 3 mph 77% 0.00 in 21 W/m2
19:30 43.4 °F 36.7 °F 29.89 in ESE 2 mph 2 mph 77% 0.00 in 18 W/m2
19:35 43.4 °F 36.7 °F 29.89 in ESE 2 mph 2 mph 77% 0.00 in 16 W/m2
19:40 43.4 °F 36.7 °F 29.89 in ESE 2 mph 2 mph 77% 0.00 in 14 W/m2
19:45 43.4 °F 37 °F 29.89 in East 2 mph 3 mph 78% 0.00 in 12 W/m2
19:50 43.5 °F 37.1 °F 29.89 in East 3 mph 3 mph 78% 0.00 in 9 W/m2
19:55 43.5 °F 36.8 °F 29.89 in ESE 2 mph 4 mph 77% 0.00 in 7 W/m2
20:00 43.4 °F 36.7 °F 29.89 in East 3 mph 3 mph 77% 0.00 in 7 W/m2
20:05 43.5 °F 36.8 °F 29.89 in East 3 mph 6 mph 77% 0.00 in 5 W/m2
20:10 43.5 °F 36.8 °F 29.89 in ESE 3 mph 4 mph 77% 0.00 in 5 W/m2
20:15 43.6 °F 37.2 °F 29.89 in ENE 3 mph 4 mph 78% 0.00 in 0 W/m2
20:20 43.6 °F 36.9 °F 29.89 in East 3 mph 3 mph 77% 0.00 in 0 W/m2
20:25 43.6 °F 36.9 °F 29.90 in East 3 mph 3 mph 77% 0.00 in 0 W/m2
20:30 43.6 °F 36.9 °F 29.90 in East 2 mph 2 mph 77% 0.00 in 0 W/m2
20:35 43.6 °F 37.2 °F 29.90 in East 2 mph 2 mph 78% 0.00 in 0 W/m2
20:40 43.7 °F 37.3 °F 29.90 in East 1 mph 1 mph 78% 0.00 in 0 W/m2
20:45 43.7 °F 37.3 °F 29.90 in East 1 mph 2 mph 78% 0.00 in 0 W/m2
20:50 43.7 °F 37.6 °F 29.90 in East 2 mph 2 mph 79% 0.00 in 0 W/m2
20:55 43.7 °F 37.6 °F 29.90 in East 2 mph 2 mph 79% 0.00 in 0 W/m2
21:00 43.7 °F 37.9 °F 29.91 in East 2 mph 2 mph 80% 0.00 in 0 W/m2
21:05 43.8 °F 38 °F 29.91 in East 2 mph 2 mph 80% 0.00 in 0 W/m2
21:10 43.8 °F 38 °F 29.91 in East 1 mph 1 mph 80% 0.00 in 0 W/m2
21:15 43.8 °F 38 °F 29.91 in East 1 mph 2 mph 80% 0.00 in 0 W/m2
21:20 43.8 °F 38 °F 29.91 in East 1 mph 1 mph 80% 0.00 in 0 W/m2
21:25 43.7 °F 37.9 °F 29.91 in East 1 mph 1 mph 80% 0.00 in 0 W/m2
21:30 43.7 °F 37.9 °F 29.91 in East 1 mph 1 mph 80% 0.00 in 0 W/m2
21:35 43.7 °F 37.9 °F 29.91 in Calm   1 mph 80% 0.00 in 0 W/m2
21:40 43.6 °F 37.5 °F 29.91 in Calm     79% 0.00 in 0 W/m2
21:45 43.6 °F 37.5 °F 29.91 in Calm   1 mph 79% 0.00 in 0 W/m2
21:50 43.6 °F 37.5 °F 29.91 in Calm     79% 0.00 in 0 W/m2
21:55 43.6 °F 37.5 °F 29.91 in Calm     79% 0.00 in 0 W/m2
22:00 43.6 °F 37.5 °F 29.91 in Calm     79% 0.00 in 0 W/m2
22:05 43.6 °F 37.5 °F 29.91 in Calm     79% 0.00 in 0 W/m2
22:10 43.6 °F 37.5 °F 29.91 in Calm     79% 0.00 in 0 W/m2
22:15 43.6 °F 37.8 °F 29.91 in Calm     80% 0.00 in 0 W/m2
22:20 43.6 °F 37.8 °F 29.91 in Calm     80% 0.00 in 0 W/m2
22:25 43.6 °F 37.5 °F 29.91 in Calm     79% 0.00 in 0 W/m2
22:30 43.6 °F 37.8 °F 29.91 in Calm     80% 0.00 in 0 W/m2
22:35 43.5 °F 37.7 °F 29.91 in Calm     80% 0.00 in 0 W/m2
22:40 43.6 °F 37.8 °F 29.92 in Calm     80% 0.00 in 0 W/m2
22:45 43.5 °F 37.7 °F 29.91 in Calm     80% 0.00 in 0 W/m2
22:50 43.5 °F 37.7 °F 29.92 in Calm     80% 0.00 in 0 W/m2
22:55 43.5 °F 37.7 °F 29.92 in Calm     80% 0.00 in 0 W/m2
Sand Point, Michigan, USA
Compliments of Weather Underground - 2 mb